| time (UTC) | temp C | wind direction | speed KPH | gust KPH | rain 1hr cm | rain 24hr cm | rain mn cm | humidity % | barometer mb |
| 20260508140309 | -3 | 283 | 1.6 | 3.2 | 0.00 | 0.00 | 0.00 | 91 | 1010.4 |
| 20260508130809 | -4 | 281 | 0.0 | 3.2 | 0.00 | 0.00 | 0.00 | 91 | 1011.0 |
| 20260508130307 | -4 | 280 | 0.0 | 4.8 | 0.00 | 0.00 | 0.00 | 92 | 1011.0 |
| 20260508120807 | -3 | 281 | 0.0 | 3.2 | 0.00 | 0.00 | 0.00 | 90 | 1011.5 |
| 20260508120307 | -3 | 289 | 0.0 | 3.2 | 0.00 | 0.00 | 0.00 | 89 | 1011.6 |
| 20260508110308 | -3 | 280 | 1.6 | 3.2 | 0.00 | 0.00 | 0.00 | 86 | 1012.1 |
| 20260508100808 | -2 | 286 | 3.2 | 3.2 | 0.00 | 0.00 | 0.00 | 85 | 1012.4 |
| 20260508100307 | -2 | 286 | 1.6 | 4.8 | 0.00 | 0.00 | 0.00 | 85 | 1012.4 |
| 20260508090807 | -2 | 244 | 3.2 | 4.8 | 0.00 | 0.00 | 0.00 | 82 | 1012.5 |
| 20260508090307 | -2 | 285 | 3.2 | 4.8 | 0.00 | 0.00 | 0.00 | 82 | 1012.5 |
| 20260508080807 | -1 | 309 | 4.8 | 4.8 | 0.00 | 0.00 | 0.00 | 79 | 1012.9 |
| 20260508080307 | -1 | 281 | 3.2 | 4.8 | 0.00 | 0.00 | 0.00 | 77 | 1012.9 |
| 20260508070815 | 1 | 274 | 4.8 | 4.8 | 0.00 | 0.00 | 0.00 | 67 | 1013.0 |
| 20260508060807 | 3 | 224 | 4.8 | 8.0 | 0.00 | 0.00 | 0.00 | 62 | 1013.0 |
| 20260508060308 | 3 | 259 | 3.2 | 12.9 | 0.00 | 0.00 | 0.00 | 60 | 1013.0 |
| 20260508050307 | 6 | 277 | 11.3 | 12.9 | 0.00 | 0.00 | 0.00 | 54 | 1012.8 |
| 20260508040807 | 8 | 291 | 4.8 | 11.3 | 0.00 | 0.00 | 0.00 | 51 | 1012.5 |
| 20260508020807 | 8 | 32 | 3.2 | 4.8 | 0.00 | 0.00 | 0.00 | 52 | 1013.1 |
| 20260508020308 | 9 | 37 | 3.2 | 12.9 | 0.00 | 0.00 | 0.00 | 52 | 1013.2 |
| 20260508010807 | 10 | 100 | 3.2 | 8.0 | 0.00 | 0.00 | 0.00 | 50 | 1013.4 |
| 20260508010308 | 10 | 200 | 8.0 | 11.3 | 0.00 | 0.00 | 0.00 | 50 | 1013.5 |
| 20260508000807 | 11 | 16 | 1.6 | 8.0 | 0.00 | 0.00 | 0.00 | 51 | 1013.9 |
| 20260508000307 | 10 | 60 | 1.6 | 11.3 | 0.00 | 0.00 | 0.00 | 52 | 1013.9 |
| 20260507230806 | 11 | 306 | 1.6 | 8.0 | 0.00 | 0.00 | 0.00 | 49 | 1014.3 |
| 20260507230308 | 11 | 334 | 3.2 | 14.5 | 0.00 | 0.00 | 0.00 | 50 | 1014.3 |
| 20260507220308 | 10 | 346 | 3.2 | 12.9 | 0.00 | 0.00 | 0.00 | 50 | 1014.8 |
| 20260507210807 | 9 | 34 | 4.8 | 12.9 | 0.00 | 0.00 | 0.00 | 54 | 1015.2 |
| 20260507210307 | 9 | 263 | 4.8 | 12.9 | 0.00 | 0.00 | 0.00 | 53 | 1015.2 |
| 20260507190807 | 7 | 279 | 3.2 | 11.3 | 0.00 | 0.00 | 0.00 | 60 | 1016.0 |
| 20260507180808 | 6 | 340 | 3.2 | 8.0 | 0.00 | 0.00 | 0.00 | 64 | 1016.4 |
| 20260507180307 | 6 | 273 | 8.0 | 14.5 | 0.00 | 0.00 | 0.00 | 62 | 1016.5 |
| 20260507170809 | 5 | 281 | 6.4 | 12.9 | 0.00 | 0.00 | 0.00 | 63 | 1016.9 |
| 20260507160808 | 3 | 278 | 4.8 | 11.3 | 0.00 | 0.00 | 0.00 | 69 | 1017.2 |
| 20260507160307 | 3 | 281 | 4.8 | 9.7 | 0.00 | 0.00 | 0.00 | 69 | 1017.2 |
| 20260507150807 | 2 | 280 | 4.8 | 8.0 | 0.00 | 0.00 | 0.00 | 72 | 1017.1 |
| 20260507150308 | 2 | 292 | 3.2 | 8.0 | 0.00 | 0.00 | 0.00 | 72 | 1017.1 |